INTELSAT 1R (IS-1R)

Last updated on Fri Oct 11 2024 00:02:38 GMT+0000 (Coordinated Universal Time)

1 26608U 00072A 24284.58938395 -.00000238 00000+0 00000+0 0 9993 2 26608 6.5373 71.4199 0007217 150.5938 173.7678 0.98979337 35144
UTC large
Height (km)
Speed (km/s)
/
Latitude / Longitude
Inclination (degrees)
Orbital Period (minutes)
Azimuth
Elevation
Range (km)
Doppler Factor

Next 0 passes for location: London (51.5072 / 0.1276)

Sorry there are no passes over London.